User: anonymous   Login
Location: Aiyekoto
(8.4333°N, 4.3667°E)
Time: 13:05:53
(UTC+00:00)
Language:

Aurora 2 Rocket - Orbit

View from above orbital plane
View from above orbital plane
View from above satellite
View from above satellite

Ground track
Ground track

The orbit data is extracted from the following two-line orbital elements,

1 21393U 91037B   21125.87568500  .00001446  00000-0  92020-4 0  9990
2 21393  24.9874 295.8922 0906103 237.0624 113.9524 13.52232235443132
Epoch (UTC): 05 May 2021 21:00:59
Eccentricity: 0.0906103
inclination: 24.9874°
perigee height: 390 km
apogee height: 1738 km
right ascension of ascending node: 295.8922°
argument of perigee: 237.0624°
revolutions per day: 13.52232235
mean anomaly at epoch: 113.9524°
orbit number at epoch: 44313

The dashed part of the orbit path shows where the satellite is in the earth's shadow,  

DLR